Location: D�rnast
(49.6426°N, 11.9755°E)
Time: 03:09:47
(UTC+00:00)

Aureole 2 Rocket - Pass Details

Date: 24 January 2021
Orbit: 285 x 375 km, 73.9° (Epoch: 24 February)

Event Time Altitude Azimuth Distance (km) Brightness Sun altitude
Rises 16:23:51 0° 182° (S) 2,234 6.3 -5.1°
Reaches altitude 10° 16:25:55 10° 172° (S) 1,403 5.1 -5.4°
Maximum altitude 16:28:43 33° 106° (ESE) 690 3.0 -5.8°
Drops below altitude 10° 16:31:37 10° 41° (NE) 1,447 4.4 -6.3°
Enters shadow 16:32:38 - 35° (NE) 1,851 5.0 -6.4°
